Location: Aragnouet
(42.7874°N, 0.2165°E)
Time: 11:30:58
(UTC+00:00)

STARLINK-1188 - Pass Details

Date: 09 April 2020
Orbit: 378 x 381 km, 53.0° (Epoch: 04 June)

Event Time Altitude Azimuth Distance (km) Brightness Sun altitude
Rises 19:54:14 0° 309° (NW) 2,221 8.4 -14.6°
Reaches altitude 10° 19:56:20 10° 317° (NW) 1,373 6.8 -14.9°
Maximum altitude 19:59:16 42° 30° (NNE) 549 3.6 -15.4°
Enters shadow 20:00:07 33° 73° (ENE) 659 3.6 -15.5°
